Location: Boulincourt
(48.8484°N, 1.7779°E)
Time: 22:54:40
(UTC+00:00)

YAOGAN 1 - Pass Details

Date: 13 December 2025
Orbit: 604 x 606 km, 97.8° (Epoch: 10 April)

Event Time Altitude Azimuth Distance (km) Brightness Sun altitude
Rises 18:59:54 0° 191° (SSW) 2,850 6.1 -29.0°
Maximum altitude 19:06:02 30° 265° (W) 1,093 4.3 -30.0°
Drops below altitude 10° 19:09:48 10° 327° (NNW) 1,964 5.5 -30.6°
Sets 19:12:13 0° 338° (NNW) 2,873 6.2 -31.0°
